{"data":{"norad_id":62891,"epoch":"2026-09-21T12:47:54.168576Z","epoch_age_seconds":78860,"freshness":"FRESH","line1":"1 62891U 25024N   26264.53326584  .00185511  00000+0  13995-2 0  9994","line2":"2 62891  42.9983  81.3374 0002063 237.0960 122.9710 15.71138726 94261","mean_motion":15.71138726,"eccentricity":0.0002063,"inclination_deg":42.9983,"raan_deg":81.3374,"arg_perigee_deg":237.096,"mean_anomaly_deg":122.971,"bstar":0.0013995,"rev_number":9426,"period_min":91.653268815169,"perigee_km":354.25220355797,"apogee_km":357.0305605184,"semimajor_km":6733.7783820382,"source":"CELESTRAK","updated_at":"2026-09-22T09:00:49.704381Z"}}